Gulkana, AK

1:25 PM AKDT on June 26, 2017 (GMT -0800)
Gulkana

Weather History for PAGK - July, 2013

Change the Weather History Date:

Sunday, July 7, 2013

  Actual Average Record
Temperature  
Mean Temperature 56 °F -  
Max Temperature 63 °F 69 °F 83 °F (1982)
Min Temperature 48 °F 46 °F -6 °F (1999)
Degree Days  
Heating Degree Days 10    
Growing Degree Days 6 (Base 50)    
Moisture  
Dew Point 44 °F    
Average Humidity 68    
Maximum Humidity 86    
Minimum Humidity 46    
Precipitation  
Precipitation 0.08 in - - ()
Sea Level Pressure  
Sea Level Pressure 29.71 in    
Wind  
Wind Speed 9 mph (SE)    
Max Wind Speed 20 mph    
Max Gust Speed 28 mph    
Visibility 10 miles    
Events Rain    
Averages and records for this station are not official NWS values.
T = Trace of Precipitation, MM = Missing Value Source: NWS Daily Summary

Daily Weather History Graph

Daily Weather History Graph

Search for Another Location

Airport or City:

Trip Planner

Search our weather history database for the weather conditions in past years. The results will help you decide how hot, cold, wet, or windy it might be!

Date:

Astronomy

Jul. 07, 2013 Rise Set
Actual Time 4:06 AM AKDT 11:25 PM AKDT
Civil Twilight 2:19 AM AKDT 1:14 AM AKDT
Nautical Twilight Sun does not set Sun does not set
Astronomical Twilight Sun does not set Sun does not set
Moon 4:24 AM AKDT (7/7) 10:14 PM AKDT (7/7)
Length of Visible Light 22h 55m
Length of Day
19h 18m
Waning Crescent, 0% of the Moon is Illuminated
Jul 7
Waning Crescent
Jul 7
New
Jul 15
First Quarter
Jul 22
Full
Jul 29
Last Quarter

Hourly Weather History & Observations

Time (AKDT) Temp. Dew Point Humidity Pressure Visibility Wind Dir Wind Speed Gust Speed Precip Events Conditions
12:53 AM 53.1 °F 42.1 °F 66% 29.84 in 10.0 mi SE 11.5 mph 19.6 mph N/A   Partly Cloudy
1:53 AM 52.0 °F 43.0 °F 71% 29.83 in 10.0 mi SSE 11.5 mph - N/A   Mostly Cloudy
2:53 AM 51.1 °F 42.1 °F 71% 29.82 in 10.0 mi SE 10.4 mph - N/A   Overcast
3:53 AM 51.1 °F 43.0 °F 74% 29.80 in 10.0 mi SSE 9.2 mph - N/A   Overcast
4:53 AM 50.0 °F 43.0 °F 77% 29.78 in 10.0 mi SE 6.9 mph - N/A   Clear
5:53 AM 50.0 °F 44.1 °F 80% 29.77 in 10.0 mi SE 4.6 mph - N/A   Overcast
6:01 AM 48.9 °F 44.1 °F 83% 29.76 in 10.0 mi SE 3.5 mph - 0.00 in Rain Light Rain
6:53 AM 48.9 °F 45.0 °F 86% 29.75 in 10.0 mi Calm Calm - 0.01 in Rain Light Rain
7:53 AM 50.0 °F 46.0 °F 86% 29.73 in 10.0 mi East 4.6 mph - 0.01 in Rain Light Rain
8:53 AM 51.1 °F 45.0 °F 80% 29.73 in 10.0 mi ENE 10.4 mph 17.3 mph 0.03 in Rain Light Rain
9:53 AM 51.1 °F 46.9 °F 86% 29.73 in 10.0 mi East 3.5 mph - 0.02 in Rain Light Rain
10:53 AM 51.1 °F 46.9 °F 86% 29.72 in 10.0 mi ENE 3.5 mph - 0.00 in Rain Light Rain
11:53 AM 53.1 °F 46.9 °F 80% 29.70 in 10.0 mi Calm Calm - 0.01 in Rain Light Rain
12:53 PM 57.0 °F 48.0 °F 72% 29.69 in 10.0 mi SE 5.8 mph - 0.00 in   Overcast
1:53 PM 57.0 °F 46.0 °F 67% 29.68 in 10.0 mi SSE 10.4 mph - 0.00 in   Overcast
2:53 PM 60.1 °F 46.0 °F 60% 29.67 in 10.0 mi SSE 10.4 mph - N/A   Mostly Cloudy
3:53 PM 60.1 °F 45.0 °F 57% 29.66 in 10.0 mi SSE 13.8 mph 26.5 mph N/A   Overcast
4:53 PM 61.0 °F 43.0 °F 52% 29.64 in 10.0 mi SSE 19.6 mph 26.5 mph N/A   Mostly Cloudy
5:53 PM 62.1 °F 41.0 °F 46% 29.64 in 10.0 mi SSE 15.0 mph 24.2 mph N/A   Mostly Cloudy
6:53 PM 61.0 °F 42.1 °F 50% 29.63 in 10.0 mi SSE 13.8 mph 27.6 mph N/A   Mostly Cloudy
7:53 PM 60.1 °F 39.9 °F 47% 29.62 in 10.0 mi SSE 18.4 mph 23.0 mph N/A   Mostly Cloudy
8:53 PM 57.0 °F 41.0 °F 55% 29.63 in 10.0 mi SE 12.7 mph 21.9 mph N/A   Overcast
9:25 PM 55.9 °F 43.0 °F 62% 29.63 in 10.0 mi SE 15.0 mph 23.0 mph N/A   Overcast
9:53 PM 55.0 °F 43.0 °F 64% 29.64 in 10.0 mi SE 12.7 mph 19.6 mph N/A   Overcast
10:53 PM 54.0 °F 41.0 °F 62% 29.64 in 10.0 mi SSE 11.5 mph - N/A   Overcast
11:53 PM 52.0 °F 42.1 °F 69% 29.64 in 10.0 mi South 11.5 mph - N/A   Overcast